SR6WXP Weather Reports


Display with metric or nautical units.
time (UTC)temp
F
wind
direction
speed
MPH
gust
MPH
rain 1hr
in
rain 24hr
in
rain mn
in
humidity
%
barometer
mb
20260905141704 70 246 7.0 10.0 0.00 0.00 0.00 61 993.5
20260905141304 70 245 8.0 12.0 0.00 0.00 0.00 61 993.5
20260905140902 69 257 7.0 10.0 0.00 0.00 0.00 62 993.5
20260905140459 69 243 8.0 13.0 0.00 0.00 0.00 62 993.5
20260905140059 70 249 10.0 14.0 0.00 0.00 0.00 62 993.5
20260905135659 70 262 10.0 14.0 0.00 0.00 0.00 62 993.5
20260905135259 70 257 7.0 11.0 0.00 0.00 0.00 62 993.4
20260905134857 70 248 8.0 11.0 0.00 0.00 0.00 61 993.4
20260905134457 70 265 11.0 16.0 0.00 0.00 0.00 60 993.5
20260905134058 70 240 9.0 16.0 0.00 0.00 0.00 60 993.4
20260905133656 70 246 11.0 16.0 0.00 0.00 0.00 60 993.4
20260905133256 70 260 14.0 18.0 0.00 0.00 0.00 59 993.5
20260905132854 70 249 10.0 13.0 0.00 0.00 0.00 60 993.5
20260905132454 70 262 13.0 17.0 0.00 0.00 0.00 59 993.5
20260905132055 70 265 12.0 16.0 0.00 0.00 0.00 60 993.6
20260905131654 70 249 10.0 19.0 0.00 0.00 0.00 60 993.6
20260905131254 70 258 14.0 18.0 0.00 0.00 0.00 60 993.6
20260905130452 70 251 10.0 13.0 0.00 0.00 0.00 62 993.6
20260905130052 70 246 11.0 15.0 0.00 0.00 0.00 62 807.9
20260905125646 70 255 12.0 16.0 0.00 0.00 0.00 61 993.7
20260905125438 70 255 12.0 16.0 0.00 0.00 0.00 61 993.7
20260905125039 70 254 13.0 16.0 0.00 0.00 0.00 60 993.7
20260905124639 70 265 14.0 19.0 0.00 0.00 0.00 60 993.8
20260905124239 70 251 13.0 18.0 0.00 0.00 0.00 60 993.9
20260905123837 70 260 14.0 22.0 0.00 0.00 0.00 61 993.8
20260905123437 70 254 14.0 20.0 0.00 0.00 0.00 61 993.9
20260905123037 70 252 11.0 16.0 0.00 0.00 0.00 60 993.8
20260905122627 70 272 13.0 19.0 0.00 0.00 0.00 60 993.9
20260905122226 70 271 14.0 19.0 0.00 0.00 0.00 61 993.9
20260905121823 70 251 10.0 14.0 0.00 0.00 0.00 62 993.9
20260905121422 70 243 10.0 13.0 0.00 0.00 0.00 61 993.9
20260905121104 70 240 11.0 16.0 0.00 0.00 0.00 62 993.8
20260905121022 70 240 11.0 16.0 0.00 0.00 0.00 62 993.8
20260905120623 69 261 11.0 16.0 0.00 0.00 0.00 61 993.9
20260905120222 69 243 13.0 20.0 0.00 0.00 0.00 61 993.9
20260905115820 69 248 9.0 18.0 0.00 0.00 0.00 64 993.8
20260905115420 69 219 10.0 17.0 0.00 0.00 0.00 63 993.8
20260905114620 69 224 10.0 16.0 0.00 0.00 0.00 65 993.9
20260905114219 69 240 9.0 13.0 0.00 0.00 0.00 65 993.9
20260905113817 69 227 10.0 16.0 0.00 0.00 0.00 64 993.9
20260905113417 69 225 9.0 16.0 0.00 0.00 0.00 64 993.8
20260905113017 69 250 9.0 14.0 0.00 0.00 0.00 65 993.9
20260905112618 69 247 10.0 15.0 0.00 0.00 0.00 65 993.9
20260905112218 69 251 11.0 16.0 0.00 0.00 0.00 65 993.9
20260905111815 69 260 12.0 17.0 0.00 0.00 0.00 65 993.9
20260905111012 69 266 11.0 18.0 0.00 0.00 0.00 65 993.8
20260905110612 69 276 12.0 16.0 0.00 0.00 0.00 65 993.8
20260905110212 69 263 10.0 14.0 0.00 0.00 0.00 65 993.8
20260905105810 69 251 15.0 19.0 0.00 0.00 0.00 64 993.7
20260905105411 69 234 9.0 14.0 0.00 0.00 0.00 65 993.5
20260905105111 69 248 11.0 20.0 0.00 0.00 0.00 64 993.6
20260905105011 69 248 11.0 20.0 0.00 0.00 0.00 64 993.6
20260905104610 69 238 12.0 21.0 0.00 0.00 0.00 64 993.5
20260905104210 69 235 13.0 19.0 0.00 0.00 0.00 64 993.6
20260905103808 68 241 11.0 17.0 0.00 0.00 0.00 65 993.7
20260905103408 68 263 14.0 19.0 0.00 0.00 0.00 65 993.7
20260905103008 68 240 12.0 22.0 0.00 0.00 0.00 65 993.7
20260905102608 68 238 15.0 21.0 0.00 0.00 0.00 65 993.7
20260905102208 68 260 14.0 20.0 0.00 0.00 0.00 66 993.8
20260905101806 68 251 14.0 20.0 0.00 0.00 0.00 66 993.8
20260905101406 68 257 14.0 23.0 0.00 0.00 0.00 67 993.8
20260905101006 68 248 14.0 18.0 0.00 0.00 0.00 66 808.0
20260905100352 68 251 16.0 24.0 0.00 0.00 0.00 66 993.8
20260905095952 67 269 15.0 19.0 0.00 0.00 0.00 66 993.8
20260905095552 67 253 18.0 30.0 0.00 0.00 0.00 65 993.9
20260905095153 67 246 18.0 26.0 0.00 0.00 0.00 65 994.0
20260905094751 67 266 17.0 24.0 0.00 0.00 0.00 65 994.0
20260905094350 67 251 17.0 22.0 0.00 0.00 0.00 65 993.9
20260905093950 67 268 16.0 27.0 0.00 0.00 0.00 65 994.0
20260905093541 67 273 17.0 23.0 0.00 0.00 0.00 65 994.0
20260905093140 67 269 17.0 24.0 0.00 0.00 0.00 66 994.1
20260905092737 67 247 14.0 22.0 0.00 0.00 0.00 67 994.1
20260905092336 67 258 16.0 25.0 0.00 0.00 0.00 66 994.0
20260905091936 67 263 24.0 31.0 0.00 0.00 0.00 67 994.1
20260905091536 67 247 16.0 24.0 0.00 0.00 0.00 69 994.0
20260905091135 67 261 17.0 24.0 0.00 0.00 0.00 71 994.0
20260905090334 67 259 13.0 17.0 0.00 0.00 0.00 73 993.9
20260905085934 66 251 10.0 17.0 0.00 0.00 0.00 73 993.8
20260905085534 66 250 15.0 20.0 0.00 0.00 0.00 73 993.9
20260905085133 66 250 12.0 18.0 0.00 0.00 0.00 75 993.9
20260905084731 66 248 14.0 22.0 0.00 0.00 0.00 75 993.9
20260905083931 66 254 16.0 20.0 0.00 0.00 0.00 75 993.8
20260905083531 66 254 16.0 22.0 0.00 0.00 0.00 75 993.7
20260905083131 66 237 14.0 25.0 0.00 0.00 0.00 76 993.6
20260905082327 66 260 17.0 20.0 0.00 0.00 0.00 77 993.6
20260905081926 66 256 11.0 17.0 0.00 0.00 0.00 78 993.6
20260905081526 65 240 11.0 19.0 0.00 0.00 0.00 79 993.5
20260905081126 65 242 9.0 14.0 0.00 0.00 0.00 79 993.5
20260905080724 65 238 12.0 18.0 0.00 0.00 0.00 79 993.4
20260905080324 65 247 12.0 18.0 0.00 0.00 0.00 81 993.5
20260905075925 64 237 12.0 19.0 0.00 0.00 0.00 81 993.4
20260905075524 64 235 8.0 11.0 0.00 0.00 0.00 83 993.4
20260905075124 64 238 12.0 20.0 0.00 0.00 0.00 83 993.4
20260905074722 64 246 11.0 21.0 0.00 0.00 0.00 86 993.4
20260905074322 64 247 13.0 20.0 0.00 0.00 0.00 86 993.4
20260905073922 64 254 9.0 12.0 0.00 0.00 0.00 87 993.2
20260905073521 64 242 13.0 17.0 0.00 0.00 0.00 87 993.2
20260905073121 64 237 11.0 17.0 0.00 0.00 0.00 90 993.2
20260905072719 64 252 10.0 16.0 0.00 0.00 0.00 91 993.2
20260905072319 63 223 9.0 16.0 0.00 0.00 0.00 93 993.1
20260905071919 63 224 9.0 15.0 0.00 0.00 0.00 94 807.7
20260905071710 63 237 9.0 16.0 0.00 0.00 0.00 93 993.1
20260905071307 63 225 10.0 15.0 0.00 0.00 0.00 95 993.1
20260905070906 63 219 8.0 13.0 0.00 0.00 0.00 96 993.0
20260905070506 62 226 7.0 10.0 0.00 0.00 0.00 97 993.0
20260905070105 62 220 10.0 13.0 0.00 0.00 0.00 97 992.9
20260905065703 62 230 8.0 12.0 0.00 0.00 0.00 97 993.0
20260905065306 62 228 6.0 12.0 0.00 0.00 0.00 98 992.9
20260905064903 62 221 6.0 12.0 0.00 0.00 0.00 98 992.8
20260905064503 62 224 6.0 10.0 0.00 0.00 0.00 99 992.8
20260905064103 62 223 6.0 8.0 0.00 0.00 0.00 99 992.7
20260905063701 62 217 5.0 8.0 0.00 0.00 0.00 99 992.7
20260905063301 62 227 4.0 6.0 0.00 0.00 0.00 99 992.7
20260905062901 62 239 4.0 6.0 0.00 0.00 0.00 99 992.5
20260905062502 62 231 4.0 7.0 0.00 0.00 0.00 99 992.5
20260905062102 62 226 4.0 8.0 0.00 0.00 0.00 99 992.5
20260905061700 62 231 5.0 8.0 0.00 0.00 0.00 99 992.5
20260905061301 62 234 5.0 8.0 0.00 0.00 0.00 99 992.4
20260905060900 62 236 5.0 8.0 0.00 0.00 0.00 99 992.4
20260905060457 62 228 5.0 7.0 0.00 0.00 0.00 98 992.4
20260905060057 62 222 6.0 9.0 0.00 0.00 0.00 98 992.4
20260905055656 62 232 8.0 13.0 0.00 0.00 0.00 98 992.3
20260905055256 62 234 6.0 10.0 0.00 0.00 0.00 98 992.2
20260905054856 62 236 7.0 10.0 0.00 0.00 0.00 98 992.1
20260905054456 62 233 9.0 12.0 0.00 0.00 0.00 98 992.1
20260905054056 62 236 10.0 13.0 0.00 0.00 0.00 99 992.1
20260905053654 62 237 9.0 13.0 0.00 0.00 0.00 99 992.2
20260905053254 62 236 8.0 12.0 0.00 0.00 0.00 30 992.1
20260905052851 62 229 6.0 8.0 0.00 0.00 0.00 30 992.1
20260905052452 62 237 5.0 9.0 0.00 0.00 0.00 30 992.1
20260905052052 62 238 6.0 9.0 0.00 0.00 0.00 30 992.0
20260905051650 62 241 6.0 9.0 0.00 0.00 0.00 30 992.0
20260905051250 61 241 7.0 10.0 0.00 0.00 0.00 30 992.0
20260905050850 61 239 10.0 16.0 0.00 0.00 0.00 30 991.9
20260905050450 61 239 7.0 11.0 0.00 0.00 0.00 30 991.9
20260905050050 61 236 8.0 13.0 0.00 0.00 0.00 30 991.8
20260905045648 61 240 9.0 13.0 0.00 0.00 0.00 30 991.8
20260905045245 61 237 9.0 13.0 0.00 0.00 0.00 30 991.7
20260905044845 61 245 6.0 9.0 0.00 0.00 0.00 30 991.9
20260905044438 61 238 8.0 12.0 0.00 0.00 0.00 30 991.8
20260905044037 61 243 9.0 14.0 0.00 0.00 0.00 30 991.6
20260905043634 61 224 7.0 12.0 0.00 0.00 0.00 30 991.5
20260905043233 60 234 7.0 12.0 0.00 0.00 0.00 30 991.6
20260905042833 60 234 5.0 9.0 0.00 0.00 0.00 30 991.6
20260905042433 60 229 7.0 10.0 0.00 0.00 0.00 30 991.8
20260905042033 60 220 8.0 13.0 0.00 0.00 0.00 30 991.7
20260905041631 60 223 7.0 12.0 0.00 0.00 0.00 30 991.7
20260905041230 60 229 5.0 7.0 0.00 0.00 0.00 30 991.6
20260905040830 61 225 8.0 11.0 0.00 0.00 0.00 30 991.5
20260905040430 61 225 6.0 11.0 0.00 0.00 0.00 31 991.4
20260905040030 61 228 6.0 9.0 0.00 0.00 0.00 30 991.4
20260905035628 61 235 8.0 11.0 0.00 0.00 0.00 31 991.4
20260905035228 61 241 6.0 9.0 0.00 0.00 0.00 31 991.4
20260905034828 61 234 8.0 11.0 0.00 0.00 0.00 31 991.4
20260905034426 61 236 8.0 12.0 0.00 0.00 0.00 31 991.3
20260905034026 61 234 9.0 12.0 0.00 0.00 0.00 31 991.3
20260905033624 61 239 8.0 12.0 0.00 0.00 0.00 31 991.4
20260905033224 61 233 8.0 13.0 0.00 0.00 0.00 31 991.3
20260905032824 61 232 8.0 11.0 0.00 0.00 0.00 31 991.2
20260905032424 61 228 6.0 8.0 0.00 0.00 0.00 31 990.9
20260905032024 61 215 8.0 16.0 0.00 0.00 0.00 31 990.8
20260905031622 61 219 5.0 9.0 0.00 0.00 0.00 31 990.8
20260905031222 61 235 8.0 11.0 0.00 0.00 0.00 31 990.8
20260905030820 61 231 7.0 10.0 0.00 0.00 0.00 32 990.8
20260905030420 61 234 8.0 12.0 0.00 0.00 0.00 32 990.7
20260905030020 61 227 7.0 11.0 0.00 0.00 0.00 32 990.7
20260905025618 61 218 10.0 12.0 0.00 0.00 0.00 32 990.5
20260905025218 61 230 8.0 10.0 0.00 0.00 0.00 32 990.7
20260905024818 62 226 6.0 7.0 0.00 0.00 0.00 32 990.4
20260905024418 62 223 4.0 7.0 0.00 0.00 0.00 32 990.0
20260905024018 62 233 4.0 6.0 0.00 0.00 0.00 32 990.1
20260905023616 62 227 5.0 9.0 0.00 0.00 0.00 32 990.3
20260905023214 62 227 5.0 10.0 0.00 0.00 0.00 32 990.3
20260905022814 62 218 7.0 9.0 0.00 0.00 0.00 32 990.3
20260905022414 62 216 6.0 8.0 0.00 0.00 0.00 32 990.2
20260905022014 62 220 6.0 10.0 0.00 0.00 0.00 32 990.3
20260905021605 62 224 6.0 8.0 0.00 0.00 0.00 990.2
20260905021203 62 215 8.0 10.0 0.00 0.00 0.00 32 990.0
20260905020802 62 215 6.0 10.0 0.00 0.00 0.00 32 990.0
20260905020401 61 206 6.0 8.0 0.00 0.00 0.00 32 989.9
20260905020001 61 211 8.0 10.0 0.00 0.00 0.00 32 989.9
20260905015559 61 207 7.0 11.0 0.00 0.00 0.00 32 989.8
20260905015200 61 211 5.0 8.0 0.00 0.00 0.00 32 989.8
20260905014800 62 217 6.0 8.0 0.00 0.00 0.00 32 990.0
20260905014400 62 222 6.0 9.0 0.00 0.00 0.00 32 990.0
20260905014000 62 219 6.0 8.0 0.00 0.00 0.00 32 990.2
20260905013558 62 216 8.0 12.0 0.00 0.00 0.00 32 990.3
20260905013158 62 213 8.0 12.0 0.00 0.00 0.00 32 990.3
20260905012758 62 223 6.0 10.0 0.00 0.00 0.00 32 990.3
20260905012356 62 228 6.0 9.0 0.00 0.00 0.00 32 990.3
20260905011956 62 241 6.0 10.0 0.00 0.00 0.00 32 990.4
20260905011554 62 243 8.0 12.0 0.00 0.00 0.00 32 990.6
20260905011153 62 240 9.0 10.0 0.00 0.00 0.00 32 990.6
20260905010753 62 234 6.0 11.0 0.00 0.00 0.00 32 990.4
20260905010353 62 238 8.0 12.0 0.00 0.00 0.00 32 990.4
20260905005953 62 241 7.0 10.0 0.00 0.00 0.00 32 990.4
20260905005551 62 238 8.0 11.0 0.00 0.00 0.00 32 990.7
20260905005151 62 242 10.0 16.0 0.00 0.00 0.00 32 990.6
20260905004750 62 250 10.0 18.0 0.00 0.00 0.00 31 990.3
20260905004351 62 240 8.0 12.0 0.00 0.00 0.00 31 990.3
20260905003951 62 239 8.0 11.0 0.00 0.00 0.00 31 990.3
20260905003549 62 225 9.0 14.0 0.00 0.00 0.00 31 990.0
20260905003249 62 220 6.0 9.0 0.00 0.00 0.00 31 989.9
20260905003149 62 220 6.0 9.0 0.00 0.00 0.00 31 989.9
20260905002748 62 222 6.0 10.0 0.00 0.00 0.00 31 990.0
20260905002348 62 234 6.0 9.0 0.00 0.00 0.00 31 989.9
20260905001948 62 227 8.0 13.0 0.00 0.00 0.00 31 990.0
20260905001546 62 230 8.0 14.0 0.00 0.00 0.00 31 989.9
20260905001144 62 233 7.0 11.0 0.00 0.00 0.00 31 989.9
20260905000745 63 225 7.0 13.0 0.00 0.00 0.00 31 989.8
20260905000344 63 231 8.0 11.0 0.00 0.00 0.00 31 989.9
20260904235944 63 225 10.0 17.0 0.00 0.00 0.00 31 989.9
20260904235542 63 248 10.0 14.0 0.00 0.00 0.00 31 989.8
20260904235142 63 239 7.0 14.0 0.00 0.00 0.00 30 989.8
20260904234742 63 234 10.0 18.0 0.00 0.00 0.00 30 989.7
20260904234335 63 220 8.0 11.0 0.00 0.00 0.00 30 989.4
20260904233934 63 215 8.0 12.0 0.00 0.00 0.00 30 989.5
20260904233530 63 212 7.0 10.0 0.00 0.00 0.00 30 989.5
20260904233129 64 205 9.0 12.0 0.00 0.00 0.00 30 989.6
20260904232729 64 210 9.0 14.0 0.00 0.00 0.00 99 989.4
20260904232329 64 215 7.0 11.0 0.00 0.00 0.00 99 989.5
20260904231929 64 224 6.0 9.0 0.00 0.00 0.00 97 989.2
20260904231527 64 213 6.0 9.0 0.00 0.00 0.00 96 989.2
20260904231127 65 215 5.0 8.0 0.00 0.00 0.00 95 989.2
20260904230728 65 228 6.0 8.0 0.00 0.00 0.00 94 989.3
20260904230325 65 241 8.0 13.0 0.00 0.00 0.00 93 989.5
20260904225924 66 241 9.0 13.0 0.00 0.00 0.00 91 989.5
20260904225523 66 242 10.0 15.0 0.00 0.00 0.00 89 989.7
20260904225123 67 238 9.0 11.0 0.00 0.00 0.00 86 989.7
20260904224723 67 249 7.0 10.0 0.00 0.00 0.00 85 989.2
20260904224323 67 247 6.0 9.0 0.00 0.00 0.00 84 989.0
20260904223922 67 248 10.0 17.0 0.00 0.00 0.00 84 989.2
20260904223520 67 249 8.0 13.0 0.00 0.00 0.00 84 989.2
20260904223120 67 246 10.0 14.0 0.00 0.00 0.00 84 989.1
20260904222720 67 253 10.0 13.0 0.00 0.00 0.00 85 989.0
20260904222320 67 257 11.0 16.0 0.00 0.00 0.00 85 988.9
20260904221919 67 257 14.0 16.0 0.00 0.00 0.00 85 988.9
20260904221518 67 269 11.0 15.0 0.00 0.00 0.00 84 988.9
20260904221118 68 259 14.0 20.0 0.00 0.00 0.00 83 989.1
20260904220718 68 266 11.0 16.0 0.00 0.00 0.00 81 988.8
20260904220318 68 261 17.0 23.0 0.00 0.00 0.00 79 988.9
20260904215917 68 262 15.0 25.0 0.00 0.00 0.00 77 988.7
20260904215515 68 277 17.0 25.0 0.00 0.00 0.00 77 988.7
20260904215113 68 277 13.0 18.0 0.00 0.00 0.00 76 988.5
20260904214712 68 271 15.0 19.0 0.00 0.00 0.00 76 988.5
20260904214313 68 271 13.0 17.0 0.00 0.00 0.00 75 988.4
20260904213912 68 278 16.0 20.0 0.00 0.00 0.00 75 988.4
20260904213511 68 276 13.0 19.0 0.00 0.00 0.00 74 988.4
20260904213111 68 270 15.0 22.0 0.00 0.00 0.00 74 988.3
20260904212710 69 277 16.0 24.0 0.00 0.00 0.00 73 988.2
20260904212310 69 278 16.0 19.0 0.00 0.00 0.00 74 988.3
20260904211910 69 276 14.0 18.0 0.00 0.00 0.00 74 988.4
20260904211500 69 275 13.0 20.0 0.00 0.00 0.00 74 988.5
20260904211100 70 266 15.0 23.0 0.00 0.00 0.00 74 988.5
20260904210659 70 281 17.0 24.0 0.00 0.00 0.00 75 988.5
20260904210258 70 272 18.0 25.0 0.00 0.00 0.00 75 988.5
20260904205858 71 279 18.0 24.0 0.00 0.00 0.00 74 988.4
20260904205456 71 269 21.0 28.0 0.00 0.00 0.00 75 988.4
20260904205056 71 263 24.0 32.0 0.00 0.00 0.00 76 988.3
20260904204656 72 284 23.0 30.0 0.00 0.00 0.00 77 988.0
20260904204254 72 272 19.0 31.0 0.00 0.00 0.00 78 987.9
20260904203854 72 261 12.0 20.0 0.00 0.00 0.00 79 987.7
20260904203452 73 264 12.0 19.0 0.00 0.00 0.00 78 987.5
20260904203052 73 269 19.0 24.0 0.00 0.00 0.00 78 987.3
20260904202652 73 272 16.0 23.0 0.00 0.00 0.00 77 987.4
20260904202252 73 269 16.0 23.0 0.00 0.00 0.00 76 987.5
20260904201852 74 261 18.0 26.0 0.00 0.00 0.00 76 987.4
20260904201450 74 263 14.0 20.0 0.00 0.00 0.00 75 987.2
20260904201050 74 262 13.0 17.0 0.00 0.00 0.00 75 987.1
20260904200650 75 271 13.0 21.0 0.00 0.00 0.00 75 987.1
20260904200250 75 267 13.0 20.0 0.00 0.00 0.00 76 987.1
20260904195850 75 268 20.0 32.0 0.00 0.00 0.00 75 986.9
20260904195048 74 233 6.0 8.0 0.00 0.00 0.00 71 985.8
20260904194648 74 197 8.0 12.0 0.00 0.00 0.00 71 985.5
20260904194249 74 188 5.0 9.0 0.00 0.00 0.00 71 985.3
20260904193848 74 184 5.0 10.0 0.00 0.00 0.00 71 985.3
20260904193446 74 164 6.0 9.0 0.00 0.00 0.00 71 985.4
20260904193044 74 168 5.0 10.0 0.00 0.00 0.00 72 985.5
20260904192644 74 162 4.0 7.0 0.00 0.00 0.00 72 985.6
20260904192244 74 175 6.0 9.0 0.00 0.00 0.00 72 985.6
20260904191844 74 176 4.0 10.0 0.00 0.00 0.00 72 985.6
20260904191442 74 171 4.0 8.0 0.00 0.00 0.00 72 985.7
20260904191042 73 182 5.0 9.0 0.00 0.00 0.00 72 985.7
20260904190642 73 179 4.0 7.0 0.00 0.00 0.00 72 985.7
20260904190242 73 187 5.0 9.0 0.00 0.00 0.00 73 985.7
20260904185842 73 184 6.0 9.0 0.00 0.00 0.00 73 985.7
20260904185441 73 184 3.0 6.0 0.00 0.00 0.00 73 985.6
20260904185041 73 178 3.0 7.0 0.00 0.00 0.00 73 985.6
20260904184641 73 192 4.0 6.0 0.00 0.00 0.00 73 985.6
20260904184233 73 187 5.0 8.0 0.00 0.00 0.00 73 985.6
20260904183832 73 171 5.0 10.0 0.00 0.00 0.00 73 985.5
20260904183430 73 178 4.0 8.0 0.00 0.00 0.00 73 985.5
20260904183029 73 180 4.0 7.0 0.00 0.00 0.00 73 985.5
20260904182629 73 185 3.0 6.0 0.00 0.00 0.00 73 985.5
20260904182226 73 170 5.0 8.0 0.00 0.00 0.00 73 985.6
20260904181826 73 145 4.0 7.0 0.00 0.00 0.00 73 985.7
20260904181424 73 176 3.0 6.0 0.00 0.00 0.00 73 985.9
20260904181024 73 149 2.0 5.0 0.00 0.00 0.00 73 986.0
20260904180624 73 134 3.0 5.0 0.00 0.00 0.00 73 986.1
20260904180225 73 140 2.0 3.0 0.00 0.00 0.00 73 986.1
20260904175825 74 130 3.0 4.0 0.00 0.00 0.00 73 986.2
20260904175423 74 126 2.0 3.0 0.00 0.00 0.00 72 986.3
20260904175023 74 130 3.0 4.0 0.00 0.00 0.00 72 986.3
20260904174623 74 132 2.0 4.0 0.00 0.00 0.00 72 986.3
20260904174223 74 135 2.0 3.0 0.00 0.00 0.00 72 986.4
20260904173823 74 136 2.0 4.0 0.00 0.00 0.00 72 986.4
20260904173421 74 133 2.0 3.0 0.00 0.00 0.00 71 986.4
20260904173021 74 141 2.0 4.0 0.00 0.00 0.00 71 986.4
20260904172621 74 154 3.0 6.0 0.00 0.00 0.00 71 986.4
20260904171821 75 177 4.0 6.0 0.00 0.00 0.00 71 986.4
20260904171419 75 186 3.0 5.0 0.00 0.00 0.00 71 986.4
20260904171017 75 185 3.0 7.0 0.00 0.00 0.00 71 986.4
20260904170617 75 201 4.0 7.0 0.00 0.00 0.00 71 986.4
20260904170217 75 207 3.0 5.0 0.00 0.00 0.00 70 986.4
20260904165817 75 208 3.0 6.0 0.00 0.00 0.00 70 986.3
20260904165415 75 204 4.0 6.0 0.00 0.00 0.00 70 986.3
20260904165015 76 216 5.0 7.0 0.00 0.00 0.00 70 986.3
20260904164615 76 213 5.0 7.0 0.00 0.00 0.00 70 986.3
20260904164215 76 214 4.0 8.0 0.00 0.00 0.00 70 986.2
20260904163815 76 207 7.0 10.0 0.00 0.00 0.00 70 986.2
20260904163413 76 199 5.0 6.0 0.00 0.00 0.00 69 986.2
20260904163013 76 205 6.0 12.0 0.00 0.00 0.00 69 986.3
20260904162613 76 213 6.0 10.0 0.00 0.00 0.00 69 986.4
20260904162213 76 204 9.0 14.0 0.00 0.00 0.00 69 986.4
20260904161813 76 208 6.0 10.0 0.00 0.00 0.00 68 986.4
20260904161404 77 202 7.0 12.0 0.00 0.00 0.00 68 986.4
20260904161003 77 208 6.0 13.0 0.00 0.00 0.00 68 986.5
20260904160602 77 204 7.0 13.0 0.00 0.00 0.00 67 986.5
20260904160159 77 214 9.0 12.0 0.00 0.00 0.00 66 986.6
20260904155759 78 207 8.0 11.0 0.00 0.00 0.00 66 986.7
20260904155357 78 210 6.0 12.0 0.00 0.00 0.00 65 986.7
20260904154957 77 207 8.0 13.0 0.00 0.00 0.00 65 986.7
20260904154556 77 203 10.0 14.0 0.00 0.00 0.00 65 986.7
20260904154156 77 204 10.0 13.0 0.00 0.00 0.00 66 986.8
20260904153756 77 212 8.0 14.0 0.00 0.00 0.00 66 986.9
20260904153354 77 207 9.0 15.0 0.00 0.00 0.00 66 986.9
20260904152954 77 214 10.0 17.0 0.00 0.00 0.00 66 986.9
20260904152555 77 217 10.0 18.0 0.00 0.00 0.00 66 987.0
20260904152154 77 204 8.0 11.0 0.00 0.00 0.00 67 987.0
20260904151754 77 216 9.0 15.0 0.00 0.00 0.00 67 987.0
20260904151352 77 212 9.0 13.0 0.00 0.00 0.00 67 987.1
20260904150952 77 213 9.0 15.0 0.00 0.00 0.00 67 987.1
20260904150552 77 215 10.0 15.0 0.00 0.00 0.00 67 987.1
20260904150152 77 209 11.0 20.0 0.00 0.00 0.00 67 987.2
20260904145752 77 216 6.0 9.0 0.00 0.00 0.00 67 987.3
20260904145350 77 207 10.0 18.0 0.00 0.00 0.00 66 987.4
20260904144947 77 202 8.0 17.0 0.00 0.00 0.00 66 987.5
20260904144547 77 217 9.0 14.0 0.00 0.00 0.00 66 987.7
20260904144147 77 221 9.0 14.0 0.00 0.00 0.00 66 987.7
20260904143747 77 215 14.0 20.0 0.00 0.00 0.00 66 987.8
20260904143345 77 221 12.0 18.0 0.00 0.00 0.00 66 987.9
20260904142944 77 220 8.0 14.0 0.00 0.00 0.00 66 988.0
20260904142544 77 212 13.0 22.0 0.00 0.00 0.00 66 988.0
20260904142144 77 211 14.0 23.0 0.00 0.00 0.00 67 987.9